This is the latest recevied weather packets stored in our database for station/object KD4IZ-13. If no packets are shown the sender has not sent any weather packets the latest 10 day(s).
| Time | Temp. | Humidity | Pressure | Rain* | Wind** | Luminosity | Snow |
|---|---|---|---|---|---|---|---|
| 1777690003 | 11.11° C | 88% | 1014 hPa | 0 mm | - | 0 W/m² | - |
| 1777689701 | 11.11° C | 88% | 1013.9 hPa | 0 mm | - | 0 W/m² | - |
| 1777689399 | 11.67° C | 87% | 1014.2 hPa | 0 mm | - | 0 W/m² | - |
| 1777689096 | 11.67° C | 84% | 1014.1 hPa | 0 mm | - | 0 W/m² | - |
| 1777688793 | 12.22° C | 74% | 1013.6 hPa | 0 mm | - | 0 W/m² | - |
| 1777688490 | 12.22° C | 76% | 1013.5 hPa | 0 mm | - | 0 W/m² | - |
| 1777688187 | 12.78° C | 71% | 1013.6 hPa | 0 mm | - | 0 W/m² | - |
| 1777687884 | 12.78° C | 69% | 1013.1 hPa | 0 mm | - | 0 W/m² | - |
| 1777687582 | 13.33° C | 68% | 1013.8 hPa | 0 mm | - | 0 W/m² | - |
| 1777687278 | 13.33° C | 67% | 1013.6 hPa | 0 mm | - | 0 W/m² | - |
| 1777686976 | 13.33° C | 66% | 1013.6 hPa | 0 mm | - | 0 W/m² | - |
| 1777686672 | 12.78° C | 68% | 1013.5 hPa | 0 mm | - | 0 W/m² | - |
| 1777686369 | 12.78° C | 71% | 1013.2 hPa | 0 mm | - | 0 W/m² | - |
| 1777686067 | 12.78° C | 71% | 1013 hPa | 0 mm | - | 0 W/m² | - |
| 1777685762 | 12.78° C | 73% | 1013 hPa | 0 mm | - | 0 W/m² | - |
| 1777685458 | 12.78° C | 71% | 1013.1 hPa | 0 mm | - | 0 W/m² | - |
| 1777685156 | 12.78° C | 71% | 1013 hPa | 0 mm | - | 0 W/m² | - |
| 1777684854 | 12.78° C | 73% | 1013 hPa | 0 mm | - | 0 W/m² | - |
| 1777684550 | 12.78° C | 73% | 1012.9 hPa | 0 mm | - | 0 W/m² | - |
| 1777684246 | 12.78° C | 72% | 1012.7 hPa | 0 mm | - | 0 W/m² | - |
| 1777683944 | 12.78° C | 73% | 1012.8 hPa | 0 mm | - | 0 W/m² | - |
| 1777683640 | 12.78° C | 72% | 1012.6 hPa | 0 mm | - | 0 W/m² | - |
| 1777683338 | 13.33° C | 71% | 1012.8 hPa | 0 mm | - | 0 W/m² | - |
| 1777683035 | 13.89° C | 67% | 1012.8 hPa | 0 mm | - | 0 W/m² | - |
| 1777682731 | 13.89° C | 65% | 1012.7 hPa | 0 mm | - | 0 W/m² | - |
* Rain latest hour (hover to see other rain measurements)
** Current wind speed in m/s (hover to see current wind gust speed)